Weather History for La Porte, IN

Change the Weather History Date:

Wednesday, September 4, 2013

  Actual Average (KVPZ) Record (KVPZ)
Temperature  
Mean Temperature 64 °F 68 °F  
Max Temperature 80 °F 78 °F 93 °F (1999)
Min Temperature 48 °F 57 °F 49 °F (2005)
Degree Days  
Heating Degree Days 1 1  
Month to date heating degree days 4  
Since 1 July heating degree days 21  
Cooling Degree Days 0 4  
Month to date cooling degree days 16  
Year to date cooling degree days 652  
Growing Degree Days 14 (Base 50)    
Moisture  
Dew Point 55 °F    
Average Humidity 77    
Maximum Humidity 100    
Minimum Humidity 28    
Precipitation  
Precipitation 0.00 in 0.12 in 2.29 in (2008)
Month to date precipitation 0.54  
Year to date precipitation 26.08  
Sea Level Pressure  
Sea Level Pressure 30.12 in    
Wind  
Wind Speed 2 mph (West)    
Max Wind Speed 10 mph    
Max Gust Speed 17 mph    
Visibility 8 miles    
Events      
T = Trace of Precipitation, MM = Missing Value Source: NWS Daily Summary

Daily Weather History Graph

Daily Weather History Graph

Search for Another Location

Airport:

Trip Planner

Search our weather history database for the weather conditions in past years. The results will help you decide how hot, cold, wet, or windy it might be!

Date:

Astronomy

Sep. 04, 2013 Rise Set
Actual Time 6:16 AM CDT 7:14 PM CDT
Civil Twilight 5:47 AM CDT 7:42 PM CDT
Nautical Twilight 5:14 AM CDT 8:16 PM CDT
Astronomical Twilight 4:39 AM CDT 8:51 PM CDT
Moon 5:28 AM CDT (9/4) 6:33 PM CDT (9/4)
Length of Visible Light 13h 54m
Length of Day
12h 58m
Waning Crescent, 1% of the Moon is Illuminated
Sep 4
Waning Crescent
Sep 5
New
Sep 12
First Quarter
Sep 19
Full
Sep 26
Last Quarter

Hourly Weather History & Observations

Time (CDT) Temp. Dew Point Humidity Pressure Visibility Wind Dir Wind Speed Gust Speed Precip Events Conditions
12:15 AM 52.2 °F 52.2 °F 100% 30.07 in 7.0 mi Calm Calm - N/A   Clear
12:35 AM 51.8 °F 51.8 °F 100% 30.07 in 4.0 mi Calm Calm - N/A   Clear
12:55 AM 50.5 °F 50.5 °F 100% 30.08 in 4.0 mi Calm Calm - N/A   Clear
1:15 AM 51.1 °F 51.1 °F 100% 30.08 in 10.0 mi Calm Calm - N/A   Clear
1:35 AM 50.4 °F 50.4 °F 100% 30.08 in 10.0 mi Calm Calm - N/A   Clear
1:55 AM 50.0 °F 50.0 °F 100% 30.08 in 7.0 mi Calm Calm - N/A   Clear
2:15 AM 50.0 °F 50.0 °F 100% 30.09 in 7.0 mi Calm Calm - N/A   Clear
2:35 AM 51.1 °F 51.1 °F 100% 30.09 in 5.0 mi Calm Calm - N/A   Scattered Clouds
2:55 AM 49.5 °F 49.5 °F 100% 30.10 in 2.0 mi Calm Calm - N/A   Clear
3:15 AM 49.3 °F 49.3 °F 100% 30.10 in 5.0 mi Calm Calm - N/A   Clear
3:35 AM 48.2 °F 48.2 °F 100% 30.10 in 10.0 mi Calm Calm - N/A   Clear
3:55 AM 50.9 °F 50.9 °F 100% 30.10 in 1.0 mi Calm Calm - N/A   Mist
4:15 AM 49.3 °F 49.3 °F 100% 30.11 in 3.0 mi Calm Calm - N/A   Clear
4:35 AM 48.6 °F 48.6 °F 100% 30.11 in 5.0 mi Calm Calm - N/A   Clear
4:55 AM 49.5 °F 49.5 °F 100% 30.11 in 4.0 mi Calm Calm - N/A   Clear
5:15 AM 48.4 °F 48.4 °F 100% 30.11 in 2.0 mi Calm Calm - N/A   Clear
5:35 AM 49.3 °F 49.3 °F 100% 30.11 in 1.8 mi Calm Calm - N/A   Mist
5:55 AM 49.1 °F 49.1 °F 100% 30.12 in 4.0 mi Calm Calm - N/A   Clear
6:15 AM 49.1 °F 49.1 °F 100% 30.12 in 2.0 mi Calm Calm - N/A   Clear
6:35 AM 51.3 °F 51.3 °F 100% 30.13 in 3.0 mi Calm Calm - N/A   Clear
6:55 AM 51.4 °F 51.4 °F 100% 30.13 in 4.0 mi Calm Calm - N/A   Clear
7:15 AM 55.0 °F 55.0 °F 100% 30.14 in 7.0 mi West 3.5 mph - N/A   Clear
7:35 AM 56.5 °F 56.5 °F 100% 30.14 in 10.0 mi West 4.6 mph - N/A   Clear
7:55 AM 58.5 °F 58.5 °F 100% 30.14 in 10.0 mi West 3.5 mph - N/A   Clear
8:15 AM 60.4 °F 58.6 °F 94% 30.14 in 10.0 mi West 4.6 mph - N/A   Clear
8:35 AM 63.1 °F 59.0 °F 86% 30.14 in 10.0 mi West 6.9 mph - N/A   Clear
8:55 AM 65.5 °F 58.6 °F 79% 30.14 in 10.0 mi West 6.9 mph - N/A   Clear
9:15 AM 67.6 °F 58.5 °F 72% 30.14 in 10.0 mi West 8.1 mph - N/A   Clear
9:35 AM 68.7 °F 57.4 °F 67% 30.14 in 10.0 mi WSW 8.1 mph - N/A   Clear
9:55 AM 70.2 °F 57.0 °F 63% 30.14 in 10.0 mi West 10.4 mph - N/A   Clear
10:15 AM 71.2 °F 57.0 °F 61% 30.14 in 10.0 mi WSW 8.1 mph - N/A   Clear
10:35 AM 72.1 °F 55.8 °F 56% 30.14 in 10.0 mi WNW 6.9 mph - N/A   Clear
10:55 AM 72.7 °F 55.6 °F 55% 30.15 in 10.0 mi West 10.4 mph 16.1 mph N/A   Clear
11:15 AM 73.0 °F 56.7 °F 56% 30.15 in 10.0 mi West 9.2 mph 17.3 mph N/A   Clear
11:35 AM 73.9 °F 57.6 °F 56% 30.15 in 10.0 mi WNW 6.9 mph - N/A   Clear
11:55 AM 74.5 °F 55.9 °F 52% 30.14 in 10.0 mi NW 6.9 mph - N/A   Clear
12:15 PM 75.2 °F 55.2 °F 50% 30.14 in 10.0 mi WNW 8.1 mph - N/A   Clear
12:35 PM 75.7 °F 55.0 °F 49% 30.14 in 10.0 mi West 9.2 mph - N/A   Clear
12:55 PM 76.6 °F 55.8 °F 48% 30.14 in 10.0 mi WNW 3.5 mph - N/A   Clear
1:15 PM 76.8 °F 55.4 °F 47% 30.14 in 10.0 mi WSW 3.5 mph - N/A   Clear
1:35 PM 77.4 °F 56.3 °F 48% 30.13 in 10.0 mi NW 3.5 mph - N/A   Clear
1:55 PM 77.9 °F 55.2 °F 45% 30.14 in 10.0 mi West 4.6 mph - N/A   Clear
2:15 PM 78.6 °F 55.0 °F 44% 30.13 in 10.0 mi WSW 8.1 mph - N/A   Clear
2:35 PM 78.4 °F 55.2 °F 45% 30.13 in 10.0 mi West 4.6 mph - N/A   Clear
2:55 PM 78.8 °F 54.9 °F 44% 30.12 in 10.0 mi SW 5.8 mph - N/A   Clear
3:15 PM 79.7 °F 51.6 °F 38% 30.12 in 10.0 mi NW 5.8 mph - N/A   Clear
3:35 PM 79.5 °F 48.7 °F 34% 30.12 in 10.0 mi Calm Calm - N/A   Clear
3:55 PM 79.7 °F 43.3 °F 28% 30.11 in 10.0 mi NW 8.1 mph - N/A   Clear
4:15 PM 80.2 °F 44.8 °F 29% 30.11 in 10.0 mi NNW 3.5 mph - N/A   Clear
4:35 PM 79.7 °F 50.4 °F 36% 30.11 in 10.0 mi SW 4.6 mph - N/A   Clear
4:55 PM 79.3 °F 53.4 °F 41% 30.10 in 10.0 mi SW 4.6 mph - N/A   Clear
5:15 PM 78.8 °F 54.0 °F 42% 30.09 in 10.0 mi WSW 5.8 mph - N/A   Clear
5:35 PM 78.4 °F 54.7 °F 44% 30.09 in 10.0 mi WSW 3.5 mph - N/A   Clear
5:55 PM 78.3 °F 54.9 °F 44% 30.10 in 10.0 mi West 4.6 mph - N/A   Clear
6:15 PM 76.3 °F 58.6 °F 54% 30.10 in 10.0 mi NNW 5.8 mph - N/A   Clear
6:35 PM 73.2 °F 59.9 °F 63% 30.09 in 10.0 mi Calm Calm - N/A   Clear
6:55 PM 69.8 °F 61.0 °F 73% 30.09 in 10.0 mi Calm Calm - N/A   Clear
7:15 PM 66.4 °F 61.7 °F 85% 30.10 in 10.0 mi Calm Calm - N/A   Clear
7:35 PM 66.0 °F 59.9 °F 81% 30.11 in 10.0 mi Calm Calm - N/A   Clear
7:55 PM 64.9 °F 60.8 °F 86% 30.11 in 10.0 mi Calm Calm - N/A   Clear
8:15 PM 65.8 °F 61.9 °F 87% 30.12 in 10.0 mi Calm Calm - N/A   Clear
8:35 PM 66.6 °F 61.5 °F 84% 30.12 in 10.0 mi Calm Calm - N/A   Clear
8:55 PM 65.5 °F 60.1 °F 83% 30.13 in 10.0 mi Calm Calm - N/A   Clear
9:15 PM 62.8 °F 61.0 °F 94% 30.13 in 10.0 mi Calm Calm - N/A   Clear
9:35 PM 61.5 °F 59.2 °F 92% 30.13 in 10.0 mi Calm Calm - N/A   Scattered Clouds
9:55 PM 60.3 °F 59.7 °F 98% 30.14 in 10.0 mi SSW 3.5 mph - N/A   Scattered Clouds
10:15 PM 59.9 °F 59.4 °F 98% 30.14 in 10.0 mi Calm Calm - N/A   Scattered Clouds
10:35 PM 59.0 °F 58.5 °F 98% 30.13 in 10.0 mi Calm Calm - N/A   Scattered Clouds
10:55 PM 59.0 °F 58.8 °F 99% 30.13 in 10.0 mi Calm Calm - N/A   Clear
11:15 PM 58.6 °F 58.5 °F 99% 30.13 in 10.0 mi Calm Calm - N/A   Clear
11:35 PM 58.6 °F 58.6 °F 100% 30.14 in 10.0 mi Calm Calm - N/A   Clear
11:55 PM 57.9 °F 57.9 °F 100% 30.14 in 10.0 mi Calm Calm - N/A   Clear